ROMMA est une association bénévole à but non lucratif. Votre soutien est indispensable : ADHERER à ROMMA ou FAIRE un DON

Voiron - (38, Isère)

Voironnais (300 m)   Longitude: 05° 35' E   Latitude: 45° 23' N Station partenaire n°109
 

Détail journalier du     <<     >>

Température Precipitation Humidité Pression Vent Dir Rafale Dir. rafale Ensol.
Heure (°C) (mm) (%) (hPa) (km/h) (km/h) (min)
01:00 7.30781027000
02:00 6.908010271SSO5SSO0
03:00 6.808010271ONO5ONO0
04:00 6.408110272ONO5ONO0
05:00 5.908210271ONO3ONO0
06:00 6.208210271ONO3ONO0
07:00 6.808110272ONO6ONO0
08:00 7.207610282N8N0
09:00 8.207310282SSO5ONO0
10:00 9.406710292SSO6SO0
11:00 9.907010295SE15SE0
12:00 10.506910293S10SSO0
13:00 11.20.27610292SE8SSE0
14:00 11.308110282ESE6SE0
15:00 11.908110282E8SE0
16:00 12.707710286S16SSO0
17:00 12.407410286ESE19S0
18:00 12.207610285S15S0
19:00 12.007710282S8S0
20:00 11.308410282SO6SSO0
21:00 11.208310282SE10SSO0
22:00 10.808610282SSO8S0
23:00 11.008510284NNO10NNO0
minuit 10.408810282ESE8SE0

Graphique du 09-03-2019

 

Serveur OMMA